sat.trackr.live / text

‹ back to catalog

PROBA-3 CSC

NORAD 62256 · 2024-233A

PAYLOAD ACTIVE UNKNOWN

§ Identity

Operator
Country
ESA
Launch date
2024-12-05
Launch site
SRILR
Launch vehicle
Mass (kg)
RCS (m²)

External: N2YO · Heavens-Above · Gunter

§ Orbital elements

Epoch: 2026-09-18T16:18:44.866944Z

Period
1,179.57 min
Inclination
59.8066°
Eccentricity
0.7995376
Mean motion
1.22078122 rev/d
Perigee alt
1,035.1 km
Apogee alt
60,170.3 km
Semi-major
36,980.8 km
B*
0.0000e+0
RAAN
89.6973°
Arg perigee
208.1416°
Mean anomaly
62.4365°
Rev number
796

§ Raw data

PROBA-3 CSC1 62256U 24233A   26261.67968596 -.00000077  00000+0  00000+0 0  99912 62256  59.8066  89.6973 7995376 208.1416  62.4365  1.22078122  7960

JSON: /api/v1/satellites/62256 · /tle

For live sub-satellite position, see the globe view (requires WebGL).

§ Visibility from observer

Set your observer location to see the next 7 days of passes ≥ 10°. The values pass through the URL so the page stays shareable.

No JS? Fill the form by hand. The geolocation button needs JavaScript.